STARLINK-34362

Last updated on Thu Jul 03 2025 00:02:06 GMT+0000 (Coordinated Universal Time)

1 64292U 25123B 25183.58335648 -.01601039 00000+0 -30305-1 0 9990 2 64292 69.9997 120.1098 0003204 269.3711 299.6838 15.51190212 5077
UTC large
Height (km)
Speed (km/s)
/
Latitude / Longitude
Inclination (degrees)
Orbital Period (minutes)
Azimuth
Elevation
Range (km)
Doppler Factor

Next 0 passes for location: London (51.5072 / 0.1276)

Sorry there are no passes over London.